FW4822 Weather Reports


Display with metric or nautical units.
time (UTC)temp
F
wind
direction
speed
MPH
gust
MPH
rain 1hr
in
rain 24hr
in
rain mn
in
humidity
%
barometer
mb
20260508074507 35 278 0.0 1.0 0.00 0.12 0.00 95 1012.3
20260508073007 36 278 0.0 3.0 0.00 0.12 0.00 95 1012.2
20260508071511 35 278 0.0 2.0 0.00 0.12 0.00 95 1012.1
20260508070009 35 278 0.0 2.0 0.00 0.12 0.00 94 1012.1
20260508064517 36 278 0.0 2.0 0.00 0.12 0.00 94 1012.2
20260508063003 37 278 0.0 3.0 0.00 0.12 0.12 95 1012.4
20260508061602 37 281 0.0 2.0 0.00 0.12 0.12 94 1012.5
20260508060106 37 281 0.0 3.0 0.00 0.12 0.12 94 1012.4
20260508054604 37 281 0.0 3.0 0.00 0.12 0.12 94 1012.3
20260508053101 37 281 0.0 2.0 0.00 0.12 0.12 93 1012.4
20260508051559 37 282 0.0 4.0 0.00 0.12 0.12 92 1012.4
20260508050100 38 284 1.0 4.0 0.00 0.12 0.12 92 1012.3
20260508044559 39 283 0.0 3.0 0.00 0.12 0.12 92 1012.3
20260508043058 39 282 0.0 3.0 0.00 0.12 0.12 92 1012.2
20260508041557 39 282 0.0 2.0 0.00 0.12 0.12 92 1012.2
20260508040055 39 285 0.0 2.0 0.00 0.12 0.12 93 1012.1
20260508034555 39 285 0.0 3.0 0.01 0.12 0.12 92 1012.0
20260508033053 39 285 0.0 2.0 0.02 0.12 0.12 92 1012.1
20260508031558 40 285 0.0 0.0 0.02 0.12 0.12 92 1012.0
20260508030114 40 285 0.0 1.0 0.05 0.12 0.12 92 1012.1
20260508024604 41 285 0.0 0.0 0.09 0.11 0.11 92 1012.4
20260508023055 41 285 0.0 0.0 0.10 0.10 0.10 91 1012.4
20260508021548 41 285 0.0 3.0 0.10 0.10 0.10 90 1012.3
20260508020049 41 291 0.0 7.0 0.08 0.08 0.08 87 1012.3
20260508014546 43 315 3.0 16.0 0.03 0.03 0.03 81 1012.1
20260508013045 47 18 1.0 5.0 0.00 0.00 0.00 64 1011.1
20260508011605 48 34 0.0 0.0 0.00 0.00 0.00 59 1010.2
20260508010106 48 34 0.0 1.0 0.00 0.00 0.00 58 1010.2
20260508004602 48 34 0.0 0.0 0.00 0.00 0.00 57 1009.9
20260508003109 49 54 0.0 3.0 0.00 0.00 0.00 56 1009.8
20260508001546 49 22 0.0 0.0 0.00 0.00 0.00 56 1009.6
20260508000044 50 21 0.0 1.0 0.00 0.00 0.00 55 1009.7
20260507234544 50 20 0.0 3.0 0.00 0.00 0.00 53 1009.5
20260507233044 50 75 0.0 3.0 0.00 0.00 0.00 53 1009.4
20260507231550 50 5 0.0 4.0 0.00 0.00 0.00 52 1009.2
20260507230042 51 55 0.0 4.0 0.00 0.00 0.00 52 1009.3
20260507224556 51 15 0.0 4.0 0.00 0.00 0.00 51 1009.4
20260507223042 51 44 1.0 7.0 0.00 0.00 0.00 50 1009.4
20260507221543 52 17 2.0 7.0 0.00 0.00 0.00 48 1009.3
20260507220042 53 17 1.0 4.0 0.00 0.00 0.00 45 1009.2
20260507214542 53 355 0.0 5.0 0.00 0.00 0.00 45 1009.3
20260507213050 53 325 1.0 7.0 0.00 0.00 0.00 44 1009.2
20260507211545 53 315 1.0 6.0 0.00 0.00 0.00 44 1009.1
20260507210051 53 5 1.0 8.0 0.00 0.00 0.00 43 1009.2
20260507204556 54 360 1.0 6.0 0.00 0.00 0.00 43 1009.2
20260507203044 54 291 1.0 7.0 0.00 0.00 0.00 43 1009.3
20260507201545 55 22 0.0 7.0 0.00 0.00 0.00 43 1009.3
20260507200044 56 316 2.0 6.0 0.00 0.00 0.00 40 1009.4
20260507194543 54 38 3.0 8.0 0.00 0.00 0.00 42 1009.6
20260507193041 54 21 0.0 9.0 0.00 0.00 0.00 43 1009.8
20260507191539 55 131 2.0 9.0 0.00 0.00 0.00 41 1009.7
20260507190042 55 303 1.0 6.0 0.00 0.00 0.00 40 1009.9
20260507184539 55 296 0.0 6.0 0.00 0.00 0.00 41 1009.9
20260507183040 55 55 2.0 7.0 0.00 0.02 0.00 43 1010.0
20260507181532 55 19 4.0 8.0 0.00 0.02 0.00 41 1010.3
20260507180033 53 228 3.0 9.0 0.00 0.02 0.00 46 1010.5
20260507174534 52 29 2.0 8.0 0.00 0.02 0.00 46 1010.5
20260507173032 53 298 3.0 8.0 0.00 0.05 0.00 44 1010.8
20260507171532 53 55 3.0 11.0 0.00 0.05 0.00 47 1010.9
20260507170031 52 26 3.0 9.0 0.00 0.05 0.00 45 1011.1
20260507164530 55 217 2.0 14.0 0.00 0.05 0.00 43 1011.0
20260507163027 52 296 4.0 8.0 0.00 0.05 0.00 44 1011.3
20260507161527 51 298 3.0 9.0 0.00 0.05 0.00 48 1011.5
20260507160026 53 277 2.0 11.0 0.00 0.05 0.00 44 1011.7
20260507154523 52 276 4.0 9.0 0.00 0.05 0.00 46 1011.8
20260507153020 51 292 1.0 7.0 0.00 0.05 0.00 52 1011.9
20260507151516 50 257 3.0 11.0 0.00 0.05 0.00 51 1012.1
20260507150013 49 247 1.0 4.0 0.00 0.05 0.00 54 1012.1
20260507144512 49 34 1.0 8.0 0.00 0.05 0.00 52 1012.3
20260507143010 49 281 3.0 12.0 0.00 0.06 0.00 54 1012.5
20260507141512 48 5 0.0 3.0 0.00 0.06 0.00 58 1012.6
20260507140011 48 286 2.0 7.0 0.00 0.06 0.00 61 1012.6
20260507134508 46 244 0.0 8.0 0.00 0.06 0.00 69 1012.6
20260507133004 45 267 1.0 5.0 0.00 0.10 0.00 74 1012.8
20260507131607 43 216 1.0 5.0 0.00 0.10 0.00 76 1012.9
20260507130108 43 262 2.0 6.0 0.00 0.10 0.00 79 1012.8
20260507124605 44 291 0.0 3.0 0.00 0.10 0.00 75 1012.7
20260507123058 43 252 0.0 4.0 0.00 0.21 0.00 79 1012.8
20260507121551 43 323 0.0 0.0 0.00 0.21 0.00 79 1012.7
20260507120050 43 325 0.0 0.0 0.00 0.21 0.00 82 1012.7
20260507114549 42 327 0.0 0.0 0.00 0.21 0.00 83 1012.7
20260507113043 41 327 0.0 0.0 0.00 0.30 0.00 84 1012.6
20260507111546 40 329 0.0 1.0 0.00 0.30 0.00 84 1012.7
20260507110041 39 5 0.0 0.0 0.00 0.30 0.00 85 1012.6
20260507104540 38 11 0.0 1.0 0.00 0.30 0.00 86 1012.4
20260507103036 38 11 0.0 0.0 0.00 0.33 0.00 87 1012.2
20260507101544 37 11 0.0 0.0 0.00 0.33 0.00 86 1012.0
20260507100037 37 11 0.0 2.0 0.00 0.33 0.00 85 1012.0
20260507094536 37 11 0.0 0.0 0.00 0.33 0.00 84 1011.9
20260507093039 38 11 0.0 3.0 0.00 0.37 0.00 82 1011.8
20260507091535 38 11 1.0 4.0 0.00 0.37 0.00 82 1011.9
20260507090034 38 9 2.0 5.0 0.00 0.37 0.00 82 1011.9
20260507084532 38 9 2.0 5.0 0.00 0.37 0.00 81 1012.0
20260507083037 38 15 2.0 4.0 0.00 0.39 0.00 81 1012.1
20260507081530 39 15 1.0 4.0 0.00 0.39 0.00 81 1012.0
20260507080030 39 15 1.0 4.0 0.00 0.39 0.00 81 1012.0